Regional Weather Roundup
Issued by NWS

Home | Current Version | Previous Version | Text Only | Print | Product List | Glossary Off
Versions: 1 2 3 4 5 6 7 8 9 10 11 12 13 14 15 16 17 18 19 20 21 22 23 24 25 26 27 28 29 30 31 32 33 34 35 36 37 38 39 40 41 42 43 44 45 46 47 48 49 50

000
ASUS45 KABQ 212310
RWRNM
NEW MEXICO REGIONAL WEATHER ROUNDUP
NATIONAL WEATHER SERVICE ALBUQUERQUE NM
500 PM MDT FRI JUL 21 2017

NOTE: "FAIR" MEANS FEW OR NO CLOUDS BELOW 12,000 FEET AGL WITH NO
       SIGNIFICANT WEATHER OR OBSTRUCTIONS TO VISION.

      THIS PRODUCT IS RELEASED AS TWO VERSIONS.  ONE VERSION NEAR
      THE TOP OF THE HOUR CONTAINING PRELIMINARY DATA FROM ALBUQUERQUE
      AND OTHER STATIONS.  A FINAL VERSION WITH ADDITIONAL DATA IS
      ISSUED ABOUT 10 MINUTES AFTER THE HOUR.

NMZ501-503-504-510>518-220000-
NORTHWEST PLATEAU/NORTHCENTRAL MOUNTAINS

CITY           SKY/WX    TMP DP  RH WIND       PRES   REMARKS
FARMINGTON     TSTM      77  54  44 SE14      30.10R
LOS ALAMOS     FAIR      84  37  18 S12G17    30.21F
SANTA FE       FAIR      87  44  22 VRB3G18   30.13F
TAOS           FAIR      79  39  24 SW24      30.20S
ANGEL FIRE     PTSUNNY   74  42  31 SE6       30.31F

$$
NMZ402-403-502-505>509-220000-
WESTCENTRAL MOUNTAINS/SOUTHWEST MOUNTAINS

CITY           SKY/WX    TMP DP  RH WIND       PRES   REMARKS
GALLUP         LGT RAIN  74  53  48 SW10      30.19R
GRANTS         PTSUNNY   79  48  33 N16G24    30.20S
SILVER CITY    FAIR      77  60  56 SW21G26   30.15R

$$
NMZ407-409-411-412-220000-
SOUTHERN DESERTS

CITY           SKY/WX    TMP DP  RH WIND       PRES   REMARKS
DEMING         FAIR      79  61  53 SW14G23   30.07R THUNDER
LAS CRUCES     PTSUNNY   86  55  34 CALM      30.06F
HOLLOMAN AFB   FAIR      86  52  31 SE17      30.05R
ALAMOGORDO     FAIR      79  57  47 SE20      30.06R
T OR C         PTSUNNY   86  51  29 VRB7      30.06F

$$
NMZ519>523-220000-
CENTRAL VALLEYS/CENTRAL HIGHLANDS

CITY           SKY/WX    TMP DP  RH WIND       PRES   REMARKS
ALBUQUERQUE    FAIR      88  51  28 SW9G17    30.08F
DOUBLE EAGLE   PTSUNNY   90  52  27 S7G18     30.12F
MORIARTY ARPT  FAIR      89  51  27 S18G29    30.15F
CLINES CORNERS FAIR      81  46  29 SW15      30.21F
BELEN          FAIR      90  45  20 S15G23    30.08S
SOCORRO        FAIR      87  53  30 SE22G28   30.07F

$$
NMZ524>526-539-540-220000-
SOUTHCENTRAL MOUNTAINS

CITY           SKY/WX    TMP DP  RH WIND       PRES   REMARKS
RUIDOSO        FAIR      72  50  46 E14       30.26S

$$
NMZ527>531-220000-
NORTHEAST HIGHLANDS/NORTHEAST PLAINS

CITY           SKY/WX    TMP DP  RH WIND       PRES   REMARKS
LAS VEGAS      FAIR      86  38  18 SE13      30.18F
RATON          FAIR      89  37  16 S6        30.11F
CLAYTON        FAIR      94  40  15 S14G22    30.04F

$$
NMZ532>537-220000-
EASTCENTRAL PLAINS

CITY           SKY/WX    TMP DP  RH WIND       PRES   REMARKS
SANTA ROSA     FAIR      94  45  18 E8G17     30.00F
TUCUMCARI      FAIR      98  43  15 VRB7G20   29.96F
CANNON AFB     FAIR      91  51  25 SE14      30.03F
CLOVIS AIRPORT FAIR      91  54  28 SE15      30.03F

$$
NMZ028-029-538-220000-
SOUTHEAST PLAINS

CITY           SKY/WX    TMP DP  RH WIND       PRES   REMARKS
ROSWELL        FAIR      93  53  25 VRB7      29.97F
ARTESIA        FAIR      90  55  31 SW8       29.99R
CARLSBAD       FAIR      93  60  33 SE15G22   29.96F
HOBBS          PTSUNNY   90  57  33 SW18G31   30.01S


$$



USA.gov is the U.S. government's official web portal to all federal, state and local government web resources and services.